YAOGAN-41

Last updated on Fri Jul 11 2025 00:02:46 GMT+0000 (Coordinated Universal Time)

1 58582U 23197A 25191.58619682 -.00000345 00000+0 00000+0 0 9994 2 58582 3.7876 309.1841 0017329 185.5166 128.2507 1.00268644 5899
UTC large
Height (km)
Speed (km/s)
/
Latitude / Longitude
Inclination (degrees)
Orbital Period (minutes)
Azimuth
Elevation
Range (km)
Doppler Factor

Next 0 passes for location: London (51.5072 / 0.1276)

Sorry there are no passes over London.